Wind_Speed
39 36 32 28 31 33 36 35 31 28 29 34 36 38 39 35 28 24 24 27 30 33 36 38 39 40 42 44 49 52 55 54 53 53 53 54 55 56 58 61 64 64 62 57
37 36 37 35 32 31 31 27 25 26 31 39 41 41 39 38 37 33 30 32 34 36 39 40 42 44 47 50 53 56 56 54 54 55 56 57 59 62 64 63 60 57 52 49
34 34 35 39 37 35 37 36 36 37 42 45 46 46 46 45 47 46 44 42 41 43 44 46 48 50 52 54 55 55 53 54 55 58 59 61 63 63 60 56 50 46 46 49
34 36 39 36 35 38 41 43 45 46 47 46 44 45 46 47 50 52 51 48 48 49 50 52 53 54 54 53 52 51 50 52 55 58 59 58 57 54 50 47 44 45 47 50
36 37 38 34 36 40 43 47 47 46 45 45 45 47 46 46 48 49 50 50 50 50 50 51 50 50 48 47 47 47 49 52 55 57 56 53 50 46 43 43 44 46 48 50
33 35 36 37 39 40 41 45 45 44 42 41 41 43 43 44 45 47 47 47 46 45 44 43 43 43 44 45 45 46 49 52 54 54 51 48 44 43 43 44 46 48 48 49
29 32 32 37 38 39 41 45 43 40 38 37 39 40 41 42 42 43 43 43 42 41 41 41 41 41 41 41 42 45 49 51 52 50 47 44 42 42 44 46 47 48 49 48
28 29 31 35 37 39 41 41 39 38 36 35 36 37 36 36 36 37 37 37 37 37 36 36 36 36 37 40 43 45 46 45 43 41 41 42 43 44 45 47 47 47 45 42
28 29 30 32 35 37 38 37 36 35 34 34 34 33 32 31 31 31 32 31 31 31 31 31 32 34 37 39 41 41 39 38 37 38 39 41 43 44 45 45 43 39 35 31
27 29 32 34 35 35 35 35 34 34 34 34 33 31 30 29 28 28 27 27 26 26 27 29 31 34 36 36 35 34 34 35 36 37 39 41 42 42 40 36 32 28 24 23
25 28 31 34 35 35 35 35 36 35 34 34 32 30 28 26 25 24 22 21 21 23 26 29 31 32 31 30 29 31 33 34 36 37 39 38 36 32 28 25 22 21 20 20
26 28 30 31 32 33 32 32 32 32 32 31 29 26 24 22 20 18 17 18 21 23 24 25 25 24 24 26 28 31 33 34 35 35 33 30 26 23 22 21 20 19 19 19
23 24 24 24 25 25 25 25 24 24 24 22 21 19 17 15 14 15 16 18 18 19 19 19 19 21 24 26 28 30 32 33 32 30 27 24 23 22 22 21 20 18 17 17
15 16 16 16 16 15 15 14 14 13 13 12 12 12 12 12 12 13 14 13 13 13 15 17 20 22 25 28 30 31 31 29 26 24 24 23 23 23 23 21 19 16 14 13
8 8 8 7 6 5 5 4 5 6 6 7 7 7 8 9 8 8 8 9 10 12 15 18 21 24 28 30 31 30 28 25 23 23 23 23 23 22 21 18 15 12 11 10
2 3 2 1 2 3 4 5 6 6 6 6 4 3 3 3 3 4 5 7 10 13 17 20 24 27 29 30 28 26 24 22 22 22 22 22 21 19 17 14 11 8 8 8
6 8 8 9 8 8 8 8 7 6 6 6 4 2 1 1 2 4 6 9 11 15 18 22 26 28 29 28 26 23 21 21 21 21 21 20 18 15 13 12 9 7 7 8
8 10 11 12 11 10 9 9 8 7 6 5 4 3 4 5 5 6 8 10 13 16 20 24 26 27 27 25 23 21 20 20 20 19 18 16 15 13 12 11 9 8 7 8
8 9 10 10 10 9 9 8 7 6 5 5 5 6 7 7 7 7 9 11 14 18 22 24 26 25 24 22 21 20 19 19 19 17 15 14 13 12 12 11 10 9 9 10
8 8 8 8 9 8 7 7 6 5 6 6 7 8 8 8 7 8 10 12 16 20 22 24 24 24 23 23 22 22 22 20 18 16 15 14 14 13 13 12 12 11 11 12
9 7 7 6 6 6 6 6 5 5 6 6 7 8 8 8 8 9 11 14 17 20 22 23 25 26 25 24 25 26 25 23 21 18 17 16 15 15 15 14 14 14 14 14
11 9 6 4 4 4 5 5 5 5 5 6 7 8 8 8 9 11 13 15 18 20 22 26 28 28 27 27 29 30 29 28 25 23 21 19 18 18 17 16 16 16 16 16
14 11 9 6 4 3 3 4 4 4 5 7 8 8 8 9 10 11 13 15 18 20 24 27 29 30 29 30 32 32 33 32 31 28 26 23 22 21 20 19 18 17 17 17
16 14 12 9 7 6 5 5 4 5 6 8 9 9 9 9 10 11 13 15 18 20 24 27 30 31 31 33 33 34 34 35 35 34 32 30 27 24 22 20 19 17 16 15
16 15 14 12 10 8 8 7 6 6 8 10 11 10 9 9 9 11 12 14 16 18 22 26 29 30 32 34 34 35 35 36 37 37 37 36 34 31 27 24 21 18 15 13
15 14 13 12 12 11 10 9 8 9 10 13 13 11 10 9 9 10 11 12 14 16 19 23 26 28 31 33 34 35 36 37 38 39 40 40 40 39 36 33 29 24 19 15
14 13 13 12 12 12 12 12 11 12 14 16 15 12 11 10 9 9 10 11 13 14 17 20 23 26 28 30 32 33 35 36 38 39 40 41 42 43 43 42 39 35 29 24
Wind_Direction
244 237 232 241 242 244 239 231 234 241 250 254 257 263 267 269 270 274 281 281 279 277 276 276 278 281 284 287 291 294 295 296 293 291 292 292 293 294 293 292 292 291 292 293
247 244 235 238 243 247 253 254 251 248 254 254 254 259 266 272 276 281 284 283 281 280 281 282 283 284 286 289 292 293 294 294 291 289 291 291 291 290 289 289 290 292 294 296
250 246 241 239 240 244 250 254 255 253 252 256 259 262 266 270 276 281 283 283 282 283 283 283 284 286 287 289 290 291 291 290 289 288 289 293 293 292 290 291 293 296 299 300
251 248 245 249 246 247 248 251 254 258 264 267 268 268 269 271 274 278 282 284 285 284 283 283 283 285 286 287 288 289 289 289 289 288 289 291 294 296 297 299 301 302 301 301
251 250 251 248 247 249 250 253 257 261 266 268 270 271 271 272 275 277 280 282 283 283 283 282 282 283 284 285 286 288 288 287 287 289 293 298 302 303 304 303 303 303 303 305
252 251 250 247 247 250 253 257 260 262 264 266 268 269 272 273 275 277 279 280 281 282 282 282 282 283 284 285 286 287 287 288 290 295 302 306 308 307 305 304 305 306 307 308
258 255 248 248 249 250 250 254 261 264 265 266 267 271 274 275 277 279 280 281 281 281 281 281 282 284 285 286 286 286 288 291 296 302 306 308 307 306 306 307 307 308 308 309
264 259 250 250 249 249 254 259 262 263 265 267 270 273 276 278 280 281 282 282 282 282 282 283 285 286 286 287 289 291 294 298 303 306 307 307 307 308 308 309 309 309 310 309
261 260 260 257 255 255 257 260 262 264 266 268 270 273 277 279 281 282 283 283 284 284 286 286 287 288 289 291 294 299 303 306 308 308 308 308 308 308 309 309 310 311 311 310
258 259 260 262 262 263 262 263 264 265 266 267 269 272 274 277 279 281 283 285 287 288 289 288 290 292 295 299 302 306 308 309 309 309 309 309 310 311 313 314 315 315 316 317
261 261 261 263 266 267 266 265 264 263 263 264 265 267 270 273 276 280 284 288 290 290 290 292 295 299 302 306 309 310 310 310 310 311 312 315 317 319 321 323 324 324 324 326
266 264 263 263 263 264 264 263 261 260 258 257 258 260 263 266 271 277 282 285 287 290 295 300 304 307 310 312 313 313 313 313 315 318 320 323 325 327 328 328 327 326 327 329
271 268 267 265 263 262 263 261 258 254 251 250 251 253 254 259 266 272 279 284 293 301 305 310 315 317 317 317 317 317 318 320 323 324 326 327 328 328 328 328 327 326 327 330
276 274 271 268 265 263 260 255 248 242 239 239 239 242 246 256 266 274 284 295 306 314 321 324 323 322 321 321 322 322 324 325 326 326 326 327 328 328 329 328 328 327 329 332
292 286 277 268 258 238 218 202 194 194 197 201 213 230 242 257 269 286 302 319 327 331 332 330 328 327 327 327 327 327 328 328 328 328 329 330 331 331 332 331 330 330 334 337
21 14 28 102 168 169 156 153 153 155 160 167 174 193 222 256 296 323 342 348 345 341 337 335 333 332 332 331 331 331 331 331 332 333 334 336 338 339 341 342 342 344 349 352
75 72 81 85 94 106 112 125 132 132 132 135 133 135 122 55 48 35 17 3 352 347 343 340 339 338 338 338 339 340 340 339 338 339 341 344 348 352 357 2 7 9 8 14
95 87 86 83 87 98 108 117 118 119 119 116 108 100 96 87 68 45 24 8 359 354 350 348 346 346 347 348 349 348 346 345 345 346 349 354 0 7 13 18 24 28 31 41
125 107 95 91 95 102 109 113 114 114 109 99 97 101 97 84 67 47 27 15 9 3 360 357 356 356 358 1 1 0 360 358 357 359 4 10 17 23 26 32 41 50 58 69
155 133 112 100 98 103 109 112 113 110 102 100 105 106 97 86 70 50 36 27 20 14 10 8 8 11 14 15 16 18 17 15 15 18 24 30 34 37 41 47 56 64 72 80
179 160 135 111 104 106 113 117 115 109 106 108 114 111 102 91 73 57 47 37 29 24 21 21 25 27 28 28 31 32 31 30 33 37 41 44 46 49 53 59 66 72 78 84
197 187 174 152 129 122 126 130 124 119 117 121 124 118 109 95 77 65 56 46 39 35 34 36 37 38 38 39 41 41 40 41 44 47 50 52 54 56 60 65 70 74 79 85
206 202 198 197 190 178 167 159 149 142 138 137 137 127 116 102 86 74 63 55 49 46 45 46 46 46 46 47 47 46 46 47 49 51 53 55 58 60 62 66 70 74 79 84
215 214 212 211 207 204 200 191 181 169 160 156 150 137 124 111 96 83 72 64 59 54 52 52 53 52 52 52 52 51 51 51 52 54 55 57 59 61 62 65 68 71 77 83
219 219 220 218 217 215 212 205 196 184 174 167 159 146 135 123 105 90 79 72 66 60 58 57 57 56 56 56 56 55 55 54 55 55 56 57 59 60 62 63 65 68 72 79
218 217 217 217 216 215 213 208 201 192 181 173 165 154 145 134 118 101 89 81 73 66 63 61 60 59 59 59 59 58 58 58 58 58 58 58 59 59 60 61 61 63 66 71
212 210 209 211 211 211 209 206 202 195 186 178 170 160 152 144 131 115 101 91 82 75 70 67 64 62 62 62 61 60 59 59 59 60 60 60 60 59 59 59 59 59 61 63
Height
5750 5754 5757 5758 5760 5761 5760 5760 5762 5763 5760 5756 5758 5757 5754 5751 5747 5748 5751 5753 5752 5751 5750 5748 5746 5744 5741 5738 5733 5729 5724 5720 5715 5710 5705 5700 5695 5689 5683 5677 5671 5665 5659 5654
5740 5745 5747 5750 5752 5753 5752 5751 5751 5753 5750 5745 5748 5748 5747 5744 5742 5742 5744 5744 5743 5742 5741 5739 5737 5734 5730 5726 5722 5717 5712 5707 5702 5697 5692 5687 5682 5676 5670 5663 5657 5651 5646 5641
5731 5734 5736 5740 5744 5744 5745 5744 5742 5740 5738 5739 5740 5741 5741 5739 5735 5732 5732 5734 5734 5732 5730 5728 5725 5722 5718 5714 5710 5705 5700 5695 5690 5685 5680 5674 5668 5662 5656 5649 5644 5639 5635 5630
5722 5724 5726 5733 5733 5732 5733 5730 5730 5730 5731 5733 5734 5732 5732 5731 5727 5724 5723 5723 5722 5720 5717 5715 5712 5709 5705 5701 5697 5693 5689 5684 5679 5673 5668 5662 5656 5650 5644 5638 5633 5628 5624 5618
5711 5713 5717 5721 5719 5721 5722 5718 5721 5722 5723 5724 5724 5721 5722 5721 5719 5716 5713 5711 5709 5707 5704 5702 5699 5696 5693 5689 5685 5681 5677 5672 5667 5662 5656 5650 5643 5638 5633 5628 5623 5617 5612 5605
5702 5704 5707 5707 5708 5710 5712 5707 5710 5712 5714 5714 5713 5711 5711 5710 5707 5705 5703 5700 5698 5695 5693 5690 5687 5685 5682 5678 5674 5670 5666 5661 5656 5650 5644 5638 5632 5627 5622 5617 5611 5605 5599 5593
5693 5695 5696 5694 5698 5700 5701 5698 5700 5702 5703 5703 5702 5700 5700 5698 5696 5694 5692 5689 5687 5685 5682 5680 5677 5674 5671 5668 5664 5660 5655 5650 5645 5638 5633 5628 5623 5617 5612 5606 5600 5594 5588 5582
5685 5686 5687 5685 5687 5689 5689 5690 5691 5692 5693 5692 5690 5689 5689 5688 5686 5684 5682 5679 5677 5675 5673 5670 5668 5665 5662 5658 5654 5650 5645 5640 5634 5629 5623 5618 5613 5607 5601 5595 5589 5583 5576 5570
5679 5679 5678 5678 5678 5679 5680 5681 5682 5683 5683 5682 5681 5680 5680 5679 5677 5675 5673 5671 5669 5667 5665 5663 5660 5657 5654 5650 5645 5640 5635 5630 5625 5620 5615 5609 5603 5597 5591 5584 5578 5572 5567 5562
5671 5671 5670 5669 5669 5671 5672 5673 5673 5673 5673 5672 5672 5672 5672 5671 5670 5668 5666 5665 5663 5661 5659 5656 5653 5649 5645 5641 5636 5631 5627 5622 5618 5613 5607 5600 5594 5587 5581 5575 5569 5564 5560 5555
5665 5664 5664 5663 5662 5663 5663 5663 5663 5663 5663 5663 5664 5664 5664 5664 5663 5662 5661 5659 5657 5655 5653 5650 5646 5642 5638 5634 5629 5625 5620 5615 5610 5605 5598 5591 5584 5578 5573 5568 5563 5559 5555 5551
5657 5656 5655 5655 5653 5653 5653 5653 5653 5653 5653 5654 5655 5657 5658 5658 5658 5657 5656 5655 5653 5651 5648 5644 5641 5637 5633 5628 5624 5619 5614 5608 5602 5596 5589 5584 5578 5573 5568 5564 5559 5555 5551 5547
5648 5647 5646 5646 5645 5644 5644 5644 5644 5644 5645 5647 5649 5651 5653 5654 5654 5654 5653 5651 5649 5646 5644 5640 5637 5633 5628 5624 5618 5613 5607 5600 5594 5589 5583 5579 5574 5569 5564 5560 5555 5551 5548 5544
5643 5642 5640 5639 5638 5638 5637 5637 5638 5639 5641 5644 5646 5648 5650 5651 5651 5651 5649 5648 5646 5643 5641 5637 5633 5629 5624 5619 5613 5607 5601 5595 5590 5584 5579 5574 5569 5564 5559 5555 5551 5548 5545 5542
5640 5638 5637 5636 5635 5634 5635 5635 5636 5638 5640 5643 5645 5647 5648 5649 5649 5648 5647 5645 5644 5642 5638 5635 5630 5625 5620 5613 5607 5601 5595 5590 5585 5580 5575 5570 5564 5560 5555 5551 5548 5546 5543 5541
5639 5637 5636 5635 5634 5635 5635 5636 5638 5639 5641 5643 5645 5646 5647 5647 5647 5647 5646 5645 5643 5640 5637 5633 5628 5622 5616 5609 5603 5597 5591 5586 5581 5576 5571 5566 5561 5557 5553 5549 5546 5544 5543 5541
5640 5638 5637 5637 5636 5636 5637 5638 5640 5642 5643 5645 5646 5647 5647 5647 5647 5647 5646 5645 5643 5640 5636 5631 5625 5619 5612 5605 5599 5593 5587 5583 5578 5573 5568 5564 5559 5555 5552 5549 5546 5544 5543 5541
5642 5641 5640 5640 5640 5640 5641 5642 5644 5645 5646 5647 5647 5648 5648 5648 5648 5648 5647 5646 5643 5640 5635 5629 5623 5616 5609 5602 5596 5591 5586 5581 5576 5571 5567 5563 5559 5555 5552 5549 5547 5545 5544 5542
5644 5644 5644 5644 5644 5644 5645 5646 5647 5648 5648 5649 5649 5649 5650 5650 5650 5650 5649 5647 5644 5640 5635 5629 5622 5615 5609 5602 5597 5591 5585 5580 5575 5571 5566 5563 5559 5556 5553 5551 5548 5547 5546 5545
5646 5646 5647 5647 5647 5647 5648 5649 5650 5650 5650 5650 5651 5651 5652 5653 5653 5652 5651 5649 5645 5641 5635 5630 5623 5616 5610 5604 5598 5592 5586 5581 5576 5571 5567 5564 5561 5558 5555 5553 5551 5550 5549 5548
5646 5648 5648 5649 5650 5650 5651 5651 5652 5652 5653 5653 5653 5654 5655 5655 5655 5655 5653 5650 5647 5643 5638 5632 5625 5619 5612 5607 5601 5595 5589 5584 5578 5574 5570 5567 5564 5561 5559 5557 5555 5554 5553 5553
5646 5648 5649 5650 5651 5652 5653 5653 5654 5654 5655 5655 5656 5657 5658 5658 5658 5657 5655 5653 5650 5646 5641 5635 5628 5622 5617 5612 5606 5600 5594 5588 5583 5578 5574 5571 5568 5566 5563 5562 5560 5559 5559 5558
5645 5647 5649 5651 5652 5653 5654 5655 5655 5656 5657 5658 5659 5660 5661 5661 5661 5660 5658 5656 5653 5650 5645 5639 5634 5628 5624 5618 5612 5607 5601 5596 5590 5585 5581 5577 5574 5571 5569 5567 5566 5565 5565 5564
5643 5646 5648 5650 5652 5653 5655 5656 5657 5657 5658 5659 5661 5662 5663 5664 5664 5662 5661 5659 5657 5654 5650 5645 5640 5636 5631 5625 5619 5615 5609 5604 5599 5594 5589 5585 5581 5578 5576 5574 5572 5571 5570 5570
5641 5644 5647 5649 5651 5653 5654 5655 5657 5658 5659 5661 5663 5665 5666 5667 5666 5666 5664 5663 5661 5659 5656 5651 5647 5643 5638 5633 5628 5623 5619 5614 5609 5604 5599 5594 5590 5586 5583 5580 5578 5577 5575 5575
5639 5642 5645 5647 5649 5651 5653 5655 5657 5658 5660 5662 5665 5666 5668 5669 5669 5668 5668 5667 5665 5663 5661 5658 5654 5650 5646 5641 5637 5633 5629 5624 5619 5614 5609 5605 5600 5596 5592 5588 5585 5583 5580 5579
5637 5640 5642 5645 5647 5649 5652 5654 5656 5658 5661 5663 5666 5668 5669 5671 5671 5671 5671 5670 5669 5668 5666 5663 5660 5657 5654 5650 5646 5642 5638 5634 5630 5625 5621 5616 5612 5607 5603 5599 5594 5590 5587 5584